| time (UTC) | temp C | wind direction | speed KPH | gust KPH | rain 1hr cm | rain 24hr cm | rain mn cm | humidity % | barometer mb |
| 20260505041511 | 15 | 190 | 0.0 | 0.0 | 0.00 | 0.00 | 0.00 | 55 | |
| 20260505041010 | 15 | 190 | 3.2 | 3.2 | 0.00 | 0.00 | 0.00 | 54 | |
| 20260505035010 | 16 | 79 | 0.0 | 0.0 | 0.00 | 0.00 | 0.00 | 54 | |
| 20260505034509 | 16 | 79 | 0.0 | 3.2 | 0.00 | 0.00 | 0.00 | 54 | |
| 20260505034010 | 16 | 236 | 0.0 | 3.2 | 0.00 | 0.00 | 0.00 | 54 | |
| 20260505033511 | 15 | 236 | 0.0 | 0.0 | 0.00 | 0.00 | 0.00 | 54 | |
| 20260505032510 | 16 | 16 | 3.2 | 3.2 | 0.00 | 0.00 | 0.00 | 54 | |
| 20260505032011 | 16 | 16 | 0.0 | 3.2 | 0.00 | 0.00 | 0.00 | 54 | |
| 20260505031511 | 16 | 15 | 3.2 | 3.2 | 0.00 | 0.00 | 0.00 | 54 | |
| 20260505031010 | 16 | 105 | 0.0 | 3.2 | 0.00 | 0.00 | 0.00 | 55 | |
| 20260505030010 | 15 | 105 | 0.0 | 0.0 | 0.00 | 0.00 | 0.00 | 55 | |
| 20260505025509 | 16 | 88 | 3.2 | 3.2 | 0.00 | 0.00 | 0.00 | 54 | |
| 20260505025011 | 16 | 93 | 6.4 | 6.4 | 0.00 | 0.00 | 0.00 | 54 | |
| 20260505024510 | 16 | 87 | 6.4 | 6.4 | 0.00 | 0.00 | 0.00 | 54 | |
| 20260505024010 | 16 | 73 | 11.3 | 11.3 | 0.00 | 0.00 | 0.00 | 54 | |
| 20260505023510 | 16 | 63 | 11.3 | 14.5 | 0.00 | 0.00 | 0.00 | 54 | |
| 20260505023011 | 16 | 54 | 14.5 | 14.5 | 0.00 | 0.00 | 0.00 | 54 | |
| 20260505022509 | 16 | 50 | 14.5 | 14.5 | 0.00 | 0.00 | 0.00 | 54 | |
| 20260505022012 | 16 | 45 | 11.3 | 14.5 | 0.00 | 0.00 | 0.00 | 55 | |
| 20260505021510 | 16 | 42 | 11.3 | 14.5 | 0.00 | 0.00 | 0.00 | 56 | |
| 20260505021011 | 16 | 24 | 11.3 | 14.5 | 0.00 | 0.00 | 0.00 | 56 | |
| 20260505020510 | 15 | 13 | 11.3 | 14.5 | 0.00 | 0.00 | 0.00 | 57 | |
| 20260505020013 | 15 | 4 | 14.5 | 17.7 | 0.00 | 0.00 | 0.00 | 58 | |
| 20260505015510 | 15 | 1 | 17.7 | 17.7 | 0.00 | 0.00 | 0.00 | 58 | |
| 20260505015011 | 15 | 4 | 14.5 | 17.7 | 0.00 | 0.00 | 0.00 | 58 | |
| 20260505014510 | 15 | 10 | 17.7 | 17.7 | 0.00 | 0.00 | 0.00 | 58 | |
| 20260505014010 | 15 | 347 | 14.5 | 17.7 | 0.00 | 0.00 | 0.00 | 58 | |
| 20260505013509 | 15 | 341 | 14.5 | 14.5 | 0.00 | 0.00 | 0.00 | 58 | |
| 20260505013010 | 15 | 337 | 11.3 | 14.5 | 0.00 | 0.00 | 0.00 | 58 | |
| 20260505012511 | 15 | 319 | 6.4 | 11.3 | 0.00 | 0.00 | 0.00 | 58 | |
| 20260505012014 | 15 | 338 | 14.5 | 14.5 | 0.00 | 0.00 | 0.00 | 59 | |
| 20260505011511 | 15 | 340 | 14.5 | 14.5 | 0.00 | 0.00 | 0.00 | 59 | |
| 20260505011010 | 15 | 353 | 14.5 | 14.5 | 0.00 | 0.00 | 0.00 | 58 | |
| 20260505010510 | 15 | 8 | 14.5 | 17.7 | 0.00 | 0.00 | 0.00 | 58 | |
| 20260505010010 | 15 | 1 | 14.5 | 14.5 | 0.00 | 0.00 | 0.00 | 59 | |
| 20260505005511 | 15 | 1 | 14.5 | 17.7 | 0.00 | 0.00 | 0.00 | 59 | |
| 20260505005011 | 15 | 39 | 14.5 | 17.7 | 0.00 | 0.00 | 0.00 | 59 | |
| 20260505004511 | 15 | 24 | 11.3 | 14.5 | 0.00 | 0.00 | 0.00 | 58 | |
| 20260505004010 | 15 | 6 | 11.3 | 14.5 | 0.00 | 0.00 | 0.00 | 58 | |
| 20260505003510 | 15 | 22 | 6.4 | 11.3 | 0.00 | 0.00 | 0.00 | 57 | |
| 20260505003010 | 15 | 40 | 11.3 | 11.3 | 0.00 | 0.00 | 0.00 | 57 | |
| 20260505002510 | 15 | 37 | 6.4 | 11.3 | 0.00 | 0.00 | 0.00 | 58 | |
| 20260505002018 | 15 | 52 | 11.3 | 14.5 | 0.00 | 0.00 | 0.00 | 58 | |
| 20260505001511 | 15 | 47 | 6.4 | 11.3 | 0.00 | 0.00 | 0.00 | 59 | |
| 20260505001011 | 15 | 77 | 14.5 | 17.7 | 0.00 | 0.00 | 0.00 | 59 | |
| 20260505000511 | 15 | 80 | 14.5 | 14.5 | 0.00 | 0.00 | 0.00 | 59 | |
| 20260505000011 | 15 | 79 | 11.3 | 14.5 | 0.00 | 0.00 | 0.00 | 59 | |
| 20260504235510 | 15 | 92 | 14.5 | 17.7 | 0.00 | 0.00 | 0.00 | 59 | |
| 20260504235017 | 15 | 100 | 17.7 | 17.7 | 0.00 | 0.00 | 0.00 | 59 | |
| 20260504234510 | 15 | 107 | 14.5 | 17.7 | 0.00 | 0.00 | 0.00 | 59 | |
| 20260504234009 | 15 | 114 | 17.7 | 17.7 | 0.00 | 0.00 | 0.00 | 60 | |
| 20260504233511 | 15 | 116 | 17.7 | 17.7 | 0.00 | 0.00 | 0.00 | 59 | |
| 20260504233010 | 15 | 116 | 17.7 | 17.7 | 0.00 | 0.00 | 0.00 | 58 | |
| 20260504232510 | 15 | 107 | 14.5 | 14.5 | 0.00 | 0.00 | 0.00 | 57 | |
| 20260504232013 | 15 | 110 | 14.5 | 17.7 | 0.00 | 0.00 | 0.00 | 57 | |
| 20260504231517 | 15 | 115 | 14.5 | 17.7 | 0.00 | 0.00 | 0.00 | 57 | |
| 20260504231010 | 15 | 120 | 14.5 | 14.5 | 0.00 | 0.00 | 0.00 | 54 | |
| 20260504230510 | 16 | 121 | 11.3 | 14.5 | 0.00 | 0.00 | 0.00 | 52 | |
| 20260504230010 | 16 | 118 | 6.4 | 6.4 | 0.00 | 0.00 | 0.00 | 51 | |
| 20260504225510 | 17 | 72 | 14.5 | 17.7 | 0.00 | 0.00 | 0.00 | 50 | |
| 20260504225010 | 17 | 54 | 11.3 | 14.5 | 0.00 | 0.00 | 0.00 | 50 | |
| 20260504224511 | 17 | 30 | 14.5 | 14.5 | 0.00 | 0.00 | 0.00 | 51 | |
| 20260504224010 | 17 | 40 | 11.3 | 14.5 | 0.00 | 0.00 | 0.00 | 51 | |
| 20260504223515 | 17 | 51 | 11.3 | 11.3 | 0.00 | 0.00 | 0.00 | 51 | |
| 20260504223010 | 17 | 60 | 11.3 | 14.5 | 0.00 | 0.00 | 0.00 | 52 | |
| 20260504222509 | 17 | 75 | 6.4 | 11.3 | 0.00 | 0.00 | 0.00 | 52 | |
| 20260504222013 | 17 | 84 | 11.3 | 11.3 | 0.00 | 0.00 | 0.00 | 51 | |
| 20260504221511 | 17 | 69 | 6.4 | 11.3 | 0.00 | 0.00 | 0.00 | 51 | |
| 20260504221010 | 17 | 48 | 6.4 | 11.3 | 0.00 | 0.00 | 0.00 | 51 | |
| 20260504220511 | 17 | 49 | 11.3 | 11.3 | 0.00 | 0.00 | 0.00 | 51 | |
| 20260504220011 | 17 | 53 | 11.3 | 11.3 | 0.00 | 0.00 | 0.00 | 51 | |
| 20260504215510 | 17 | 44 | 11.3 | 11.3 | 0.00 | 0.00 | 0.00 | 51 | |
| 20260504215011 | 17 | 57 | 11.3 | 11.3 | 0.00 | 0.00 | 0.00 | 51 | |
| 20260504214510 | 17 | 53 | 11.3 | 11.3 | 0.00 | 0.00 | 0.00 | 51 | |
| 20260504214010 | 17 | 47 | 11.3 | 14.5 | 0.00 | 0.00 | 0.00 | 50 | |
| 20260504213510 | 17 | 32 | 14.5 | 14.5 | 0.00 | 0.00 | 0.00 | 51 | |
| 20260504213011 | 17 | 25 | 11.3 | 14.5 | 0.00 | 0.00 | 0.00 | 51 | |
| 20260504212511 | 17 | 15 | 11.3 | 11.3 | 0.00 | 0.00 | 0.00 | 51 | |
| 20260504212012 | 17 | 18 | 11.3 | 11.3 | 0.00 | 0.00 | 0.00 | 51 | |
| 20260504211510 | 17 | 27 | 11.3 | 11.3 | 0.00 | 0.00 | 0.00 | 51 | |
| 20260504211010 | 17 | 46 | 11.3 | 14.5 | 0.00 | 0.00 | 0.00 | 51 | |
| 20260504210511 | 17 | 47 | 6.4 | 6.4 | 0.00 | 0.00 | 0.00 | 51 | |
| 20260504210011 | 17 | 50 | 6.4 | 11.3 | 0.00 | 0.00 | 0.00 | 51 | |
| 20260504205510 | 17 | 56 | 11.3 | 11.3 | 0.00 | 0.00 | 0.00 | 51 | |
| 20260504205010 | 17 | 66 | 6.4 | 6.4 | 0.00 | 0.00 | 0.00 | 51 | |
| 20260504204510 | 17 | 48 | 11.3 | 11.3 | 0.00 | 0.00 | 0.00 | 50 | |
| 20260504204010 | 17 | 42 | 14.5 | 14.5 | 0.00 | 0.00 | 0.00 | 50 | |
| 20260504203510 | 17 | 29 | 14.5 | 14.5 | 0.00 | 0.00 | 0.00 | 49 | |
| 20260504203011 | 17 | 30 | 14.5 | 17.7 | 0.00 | 0.00 | 0.00 | 49 | |
| 20260504202510 | 17 | 28 | 14.5 | 17.7 | 0.00 | 0.00 | 0.00 | 50 | |
| 20260504202012 | 17 | 21 | 14.5 | 17.7 | 0.00 | 0.00 | 0.00 | 50 | |
| 20260504201511 | 17 | 19 | 14.5 | 14.5 | 0.00 | 0.00 | 0.00 | 50 | |
| 20260504201010 | 17 | 17 | 14.5 | 14.5 | 0.00 | 0.00 | 0.00 | 50 | |
| 20260504200511 | 17 | 26 | 14.5 | 17.7 | 0.00 | 0.00 | 0.00 | 50 | |
| 20260504200010 | 17 | 26 | 17.7 | 20.9 | 0.00 | 0.00 | 0.00 | 50 | |
| 20260504195511 | 17 | 23 | 17.7 | 17.7 | 0.00 | 0.00 | 0.00 | 50 | |
| 20260504195011 | 17 | 24 | 17.7 | 20.9 | 0.00 | 0.00 | 0.00 | 50 | |
| 20260504194511 | 17 | 19 | 17.7 | 20.9 | 0.00 | 0.00 | 0.00 | 50 | |
| 20260504194011 | 17 | 25 | 17.7 | 20.9 | 0.00 | 0.00 | 0.00 | 50 | |
| 20260504193511 | 17 | 32 | 20.9 | 20.9 | 0.00 | 0.00 | 0.00 | 49 | |
| 20260504193010 | 17 | 34 | 20.9 | 20.9 | 0.00 | 0.00 | 0.00 | 49 | |
| 20260504192510 | 17 | 31 | 20.9 | 20.9 | 0.00 | 0.00 | 0.00 | 49 | |
| 20260504192014 | 17 | 27 | 20.9 | 20.9 | 0.00 | 0.00 | 0.00 | 49 | |
| 20260504191510 | 17 | 28 | 20.9 | 20.9 | 0.00 | 0.00 | 0.00 | 48 | |
| 20260504191010 | 17 | 26 | 17.7 | 20.9 | 0.00 | 0.00 | 0.00 | 48 | |
| 20260504190510 | 17 | 25 | 17.7 | 17.7 | 0.00 | 0.00 | 0.00 | 47 | |
| 20260504190011 | 17 | 28 | 17.7 | 20.9 | 0.00 | 0.00 | 0.00 | 46 | |
| 20260504185510 | 17 | 41 | 14.5 | 14.5 | 0.00 | 0.00 | 0.00 | 45 | |
| 20260504185011 | 17 | 33 | 14.5 | 17.7 | 0.00 | 0.00 | 0.00 | 44 | |
| 20260504184511 | 18 | 36 | 6.4 | 11.3 | 0.00 | 0.00 | 0.00 | 43 | |
| 20260504184010 | 18 | 71 | 11.3 | 11.3 | 0.00 | 0.00 | 0.00 | 42 | |
| 20260504183510 | 18 | 80 | 11.3 | 14.5 | 0.00 | 0.00 | 0.00 | 42 | |
| 20260504183010 | 18 | 86 | 14.5 | 14.5 | 0.00 | 0.00 | 0.00 | 42 | |
| 20260504182510 | 18 | 82 | 14.5 | 14.5 | 0.00 | 0.00 | 0.00 | 43 | |
| 20260504182015 | 18 | 67 | 14.5 | 17.7 | 0.00 | 0.00 | 0.00 | 43 | |
| 20260504181510 | 18 | 34 | 11.3 | 14.5 | 0.00 | 0.00 | 0.00 | 44 | |
| 20260504181011 | 18 | 31 | 11.3 | 11.3 | 0.00 | 0.00 | 0.00 | 44 | |
| 20260504180515 | 18 | 26 | 14.5 | 14.5 | 0.00 | 0.00 | 0.00 | 44 | |
| 20260504180011 | 18 | 55 | 3.2 | 6.4 | 0.00 | 0.00 | 0.00 | 42 | |
| 20260504175510 | 18 | 100 | 14.5 | 17.7 | 0.00 | 0.00 | 0.00 | 42 | |
| 20260504175010 | 18 | 101 | 14.5 | 17.7 | 0.00 | 0.00 | 0.00 | 42 | |
| 20260504174511 | 18 | 98 | 14.5 | 14.5 | 0.00 | 0.00 | 0.00 | 42 | |
| 20260504174010 | 18 | 98 | 14.5 | 17.7 | 0.00 | 0.00 | 0.00 | 42 | |
| 20260504173511 | 18 | 97 | 14.5 | 17.7 | 0.00 | 0.00 | 0.00 | 43 | |
| 20260504173010 | 18 | 102 | 14.5 | 14.5 | 0.00 | 0.00 | 0.00 | 43 | |
| 20260504172511 | 20 | 104 | 14.5 | 17.7 | 0.00 | 0.00 | 0.00 | 43 | |
| 20260504172015 | 20 | 102 | 14.5 | 17.7 | 0.00 | 0.00 | 0.00 | 42 | |
| 20260504171511 | 20 | 104 | 14.5 | 14.5 | 0.00 | 0.00 | 0.00 | 42 | |
| 20260504171010 | 20 | 103 | 14.5 | 14.5 | 0.00 | 0.00 | 0.00 | 41 | |
| 20260504170511 | 20 | 99 | 11.3 | 14.5 | 0.00 | 0.00 | 0.00 | 40 | |
| 20260504151010 | 22 | 215 | 3.2 | 3.2 | 0.00 | 0.00 | 0.00 | 34 | |
| 20260504150510 | 22 | 171 | 3.2 | 6.4 | 0.00 | 0.00 | 0.00 | 34 | |
| 20260504141010 | 22 | 251 | 3.2 | 6.4 | 0.00 | 0.00 | 0.00 | 35 | |
| 20260504140511 | 22 | 216 | 3.2 | 3.2 | 0.00 | 0.00 | 0.00 | 35 | |
| 20260504130511 | 22 | 109 | 6.4 | 11.3 | 0.00 | 0.00 | 0.00 | 35 | |
| 20260504110510 | 21 | 182 | 6.4 | 11.3 | 0.00 | 0.00 | 0.00 | 38 | |
| 20260504100511 | 18 | 267 | 0.0 | 3.2 | 0.00 | 0.00 | 0.00 | 43 | |
| 20260504081510 | 15 | 312 | 6.4 | 11.3 | 0.00 | 0.00 | 0.00 | 50 | |
| 20260504081011 | 15 | 312 | 6.4 | 11.3 | 0.00 | 0.00 | 0.00 | 51 | |
| 20260504080518 | 15 | 312 | 11.3 | 11.3 | 0.00 | 0.00 | 0.00 | 51 | |
| 20260504050511 | 12 | 103 | 14.5 | 17.7 | 0.00 | 0.00 | 0.00 | 50 | |
| 20260504050012 | 12 | 89 | 11.3 | 11.3 | 0.00 | 0.00 | 0.00 | 51 | |
| 20260504045510 | 12 | 78 | 11.3 | 11.3 | 0.00 | 0.00 | 0.00 | 51 |